User: anonymous   Login
Location: Unspecified
(0.0000°N, 0.0000°E)
Time: 00:10:59
(UTC+00:00)
Language:

STARLINK-30921 - Orbit

View from above orbital plane
View from above orbital plane
View from above satellite
View from above satellite

Ground track
Ground track

The orbit is defined by the following mean orbital elements,

1 58383U          26145.31286631 +.00000000 +00000-0 +30441-4 0 00004
2 58383  53.1617   4.3978 0001191  86.7374 273.3765 15.34388647    02
Epoch (UTC): 25 May 2026 07:30:31
Eccentricity: 0.0001191
inclination: 53.1617°
perigee height: 462 km
apogee height: 464 km
right ascension of ascending node: 4.3978°
argument of perigee: 86.7374°
revolutions per day: 15.34388647
mean anomaly at epoch: 273.3765°

The dashed part of the orbit path shows where the satellite is in the earth's shadow,  

DLR